Погода в Кобулети

Грузия     41°49′14″N   41°46′32″E
темп.,
°C
ветер,
м/с
пор.,
м/с
влажн.,
%
обл.,
%
осадки,
мм/ч
давл.,
гПа
погр.,
м
13 мая, чт
чт1301:00+13в11740 0.0 101155
04:00+13вюв22670 0.0 101134
07:00+15вюв22615 0.0 101030
10:00+22сз11463 0.0 1009171
13:00+23зсз11473 0.0 1009347
16:00+24з22450 0.0 1008357
19:00+20юз33700 0.0 100848
22:00+18юв117215 0.0 101017
14 мая, пт
пт1401:00+18юв226098 0.0 100942
04:00+17юв22592 0.0 100939
07:00+18вюв33610 0.0 101049
10:00+25з11450 0.0 1009273
13:00+26зсз11420 0.0 1010416
16:00+25зюз33420 0.0 1010338
19:00+18ююз45720 0.0 1012135
22:00+15ююз33750 0.0 101348
15 мая, сб
сб1501:00+15ююз22741 0.0 101327
04:00+14ю1178100 0.0 101311
07:00+15ююз34819 0.0 1015121
10:00+18зюз33650 0.0 1015331
13:00+18зюз33661 0.0 1014373
16:00+18зюз34631 0.0 1013336
19:00+16зюз347317 0.1 1012148
22:00+15юв227986 0.1 101217
16 мая, вс
вс1601:00+16юв1176100 0.0 101016
04:00+15юв117551 0.0 100914
07:00+16всв117173 0.0 100820
10:00+20зсз21602 0.0 1006192
13:00+22сз22575 0.0 1004323
16:00+25з325356 0.0 1002250
19:00+20вюв6965100 0.6 1001135
22:00+19вюв337050 0.6 100379
17 мая, пн
пн1701:00+15ююз68820 0.0 1007215
04:00+14ююв118187 0.0 100620
07:00+16зюз1176100 0.0 100622
10:00+17зюз3376100 0.0 1008313
13:00+17зюз4476100 0.0 1010441
16:00+16зюз338078 0.0 1011400
19:00+15юз348456 0.2 1012327
22:00+13ююв2392100 0.3 101456